GFSGL_700_spd_075.txt.gz
Wind_Speed
31 33 36 41 43 43 42 43 44 44 44 45 46 47 47 47 46 46 46 46 45 44 43 43 43 43 44 44 43 43 42 41 43 38 38 35 32 28 26 28 31 33 36
35 39 42 42 40 40 41 40 41 42 41 42 42 43 44 45 45 46 46 44 43 44 44 44 44 43 44 42 41 39 36 35 36 37 37 36 34 32 30 30 31 32 32
42 44 41 38 38 38 37 37 37 38 40 41 43 44 44 44 45 44 43 43 44 44 44 44 43 41 40 37 34 33 31 31 32 33 31 27 26 24 25 29 30 31 30
43 39 38 37 36 35 35 36 38 40 42 43 43 43 43 43 43 43 43 43 43 43 42 40 38 35 32 30 28 27 26 27 34 39 39 36 28 23 26 24 25 24 25
37 36 35 35 35 35 36 38 40 41 40 40 40 41 42 42 43 43 42 42 40 38 34 32 30 29 27 28 30 31 34 37 38 38 41 37 36 31 32 25 29 28 24
36 34 33 33 34 35 37 39 39 37 38 40 41 42 42 41 41 39 38 37 33 31 30 28 28 29 29 29 30 31 32 35 38 40 41 42 38 38 33 30 28 29 28
32 32 32 32 34 35 36 36 36 37 39 41 41 41 41 40 37 33 29 27 26 28 30 31 31 30 29 32 32 33 35 38 41 43 45 45 45 41 38 36 34 30 29
31 31 31 32 32 33 35 35 35 37 39 40 40 39 39 34 28 25 24 25 26 26 25 26 30 31 30 35 37 38 39 37 35 33 35 38 41 35 35 32 31 32 27
30 29 30 30 31 34 35 35 36 37 39 39 38 38 34 27 24 23 24 25 23 27 29 31 28 35 35 36 39 40 36 28 25 29 33 38 38 36 33 29 30 34 31
28 29 29 31 34 36 35 35 36 38 39 38 38 34 29 25 24 24 24 22 29 31 29 31 34 39 38 33 32 34 27 23 26 27 26 29 34 35 25 23 22 27 26
28 28 31 32 35 34 34 35 37 38 39 37 36 28 25 25 25 25 23 22 28 29 31 33 35 34 31 28 27 26 18 18 19 20 19 18 11 19 21 22 21 24 25
27 29 31 33 32 33 34 36 37 38 37 37 32 25 23 23 24 24 22 21 23 25 33 37 32 25 24 21 18 12 12 16 17 15 15 13 12 13 16 21 26 28 28
28 30 31 31 31 33 35 37 37 37 37 35 28 24 23 23 24 23 24 23 29 31 34 37 29 19 7 3 6 9 13 14 14 13 12 12 14 15 17 19 21 24 25
29 30 30 31 31 33 35 35 36 35 35 29 26 25 25 25 26 25 25 31 33 32 36 34 21 11 9 5 11 12 15 14 13 13 15 14 15 18 18 19 20 19 21
28 29 29 30 32 34 34 36 35 35 29 29 26 25 26 27 27 26 26 28 30 31 34 26 16 11 12 13 15 18 18 15 14 17 13 11 11 11 16 19 20 21 21
28 27 29 29 32 34 36 34 33 30 27 26 23 23 24 25 26 25 28 29 30 28 23 17 11 11 11 13 14 16 15 12 14 15 10 9 8 11 14 15 18 20 21
26 27 27 30 33 35 35 35 35 26 26 25 23 21 21 23 24 26 28 27 24 22 19 15 11 10 11 10 10 8 8 9 9 4 3 5 9 10 7 10 12 16 17
26 26 27 31 33 34 33 35 33 30 28 24 21 20 19 22 24 24 24 23 23 21 19 15 11 10 11 9 7 6 4 5 6 3 4 4 4 6 11 7 16 19 16
25 25 28 31 32 33 34 34 30 28 27 25 21 19 20 22 21 21 22 23 24 22 19 14 11 9 10 9 7 6 3 5 4 3 4 9 9 6 14 17 4 4 18
23 26 29 31 33 32 34 31 29 27 25 23 23 21 22 20 21 21 23 25 25 23 20 14 10 8 10 11 10 9 7 10 10 9 3 2 5 9 13 18 19 16 20
23 26 29 30 31 32 32 29 28 25 23 22 22 22 22 23 24 24 26 26 26 26 23 16 8 8 11 13 12 12 11 12 10 9 5 4 7 9 12 18 20 20 18
23 26 29 30 30 31 29 28 26 23 22 21 21 21 21 22 23 25 26 25 25 24 22 16 9 5 11 14 15 15 14 16 10 11 6 6 6 8 11 13 14 17 18
23 26 28 29 31 29 26 25 22 22 21 21 22 22 22 23 24 24 25 25 22 20 19 15 9 3 10 15 16 17 18 20 16 8 5 7 8 6 10 11 12 15 16
24 27 28 29 30 27 25 21 21 21 23 21 22 22 23 23 24 23 24 22 19 18 17 14 10 3 8 14 17 18 19 18 16 11 8 6 8 8 8 10 12 13 13
24 26 27 30 27 24 22 20 21 22 22 21 21 22 23 23 22 22 21 20 19 20 15 15 11 4 7 13 18 19 20 19 19 15 10 9 9 8 10 10 11 12 11
23 25 28 29 25 23 21 21 21 23 23 21 22 22 23 23 22 20 19 20 20 19 15 15 12 6 6 12 17 20 22 20 18 16 12 12 13 11 11 13 12 12 12

GFSGL_700_spd_078.txt.gz
Wind_Speed
27 28 31 34 38 43 44 43 42 42 44 45 45 45 45 45 45 47 47 47 47 46 45 46 46 46 45 44 44 45 46 46 48 44 41 37 34 28 30 33 35 37 38
31 34 36 40 44 42 40 40 41 41 40 40 41 43 44 46 46 47 47 46 46 46 46 46 46 47 46 44 44 44 43 40 39 41 33 31 29 26 25 30 34 36 36
35 39 42 43 41 39 38 37 37 37 39 40 42 44 45 44 43 43 44 45 46 46 46 46 45 45 44 42 39 36 33 29 29 31 30 23 21 21 22 24 28 34 36
39 42 41 39 38 36 35 35 37 38 40 42 42 41 40 41 43 45 46 46 45 45 44 43 42 40 37 33 30 26 24 24 25 31 35 36 32 27 27 28 26 25 28
42 39 37 36 35 35 36 37 38 39 40 40 40 39 41 43 45 46 45 45 44 42 39 35 32 30 29 27 26 30 30 32 33 34 35 34 37 33 29 29 32 31 28
39 37 35 34 33 34 35 35 35 37 38 39 39 41 42 43 43 42 41 40 36 32 29 28 27 26 28 29 30 31 31 32 34 37 35 37 40 40 35 33 33 31 32
34 33 32 31 32 33 33 34 36 38 38 38 39 41 41 41 40 39 33 29 28 28 29 30 27 26 29 28 32 30 33 34 35 38 41 42 43 42 38 37 37 38 35
31 29 29 30 31 31 33 35 38 38 37 38 39 40 40 38 36 30 26 26 26 26 27 26 29 30 32 35 35 34 36 38 38 38 40 40 41 35 31 31 31 32 32
28 28 28 29 30 31 33 36 36 35 37 38 39 39 38 36 28 25 24 26 27 27 27 29 30 31 31 34 39 43 45 41 37 35 32 30 28 30 32 35 37 34 31
27 26 27 29 31 33 35 34 34 37 38 39 40 37 36 32 24 23 23 25 27 26 26 28 27 31 35 40 35 32 33 29 28 23 24 26 28 32 35 40 41 35 30
26 27 28 30 31 33 33 33 35 38 39 39 38 36 32 27 23 22 22 23 25 26 26 27 30 34 36 31 29 31 31 23 17 20 19 20 21 21 27 25 29 26 25
26 27 28 30 32 32 32 34 36 38 39 37 38 33 26 23 22 23 23 23 23 27 29 33 35 33 30 27 16 12 13 12 18 13 14 17 18 18 17 10 20 25 21
27 28 29 31 31 31 32 34 37 38 37 38 34 30 25 21 21 22 22 24 22 29 30 35 37 36 28 14 11 4 9 13 11 14 16 15 15 16 17 15 15 19 22
28 29 30 29 29 30 32 35 37 36 36 33 30 30 26 23 22 24 25 25 31 33 34 33 31 25 16 15 14 14 12 15 14 14 15 14 16 18 18 19 19 20 22
28 28 27 27 28 30 33 34 35 35 34 31 31 29 27 25 23 23 27 30 32 33 31 27 23 19 14 16 18 18 18 20 18 18 18 17 16 15 16 21 24 23 22
26 26 26 27 28 31 34 34 31 33 29 27 26 25 23 23 23 24 26 28 28 26 25 23 19 17 14 14 14 15 16 16 17 17 17 14 13 13 14 16 18 23 26
27 26 26 26 30 33 34 35 35 27 26 24 24 22 21 21 22 25 25 24 24 24 23 21 18 14 13 14 11 11 11 10 11 12 7 9 11 15 17 17 18 20 23
26 25 25 28 31 32 34 34 33 31 28 22 21 23 21 22 23 22 22 22 23 22 22 20 16 13 12 13 9 7 7 9 8 6 8 7 8 9 12 15 22 26 23
25 23 25 28 31 33 34 34 30 29 25 22 20 19 22 20 20 21 22 24 24 23 21 18 14 11 10 11 9 7 7 6 3 1 3 9 11 12 11 15 9 15 22
23 22 25 29 31 32 34 31 28 25 22 22 22 22 21 20 20 20 22 24 24 24 22 17 12 9 9 11 11 9 6 7 8 3 4 11 6 10 17 17 10 5 13
20 23 26 28 30 32 32 28 26 23 21 22 22 23 23 24 23 24 24 24 24 23 20 16 11 6 9 12 13 12 11 11 12 7 3 9 11 13 17 22 14 7 11
20 24 26 28 30 30 27 26 22 22 22 23 22 22 22 22 22 22 22 22 22 20 19 15 11 5 8 12 14 15 14 13 9 6 2 3 4 9 14 19 25 14 20
22 24 26 27 30 26 23 21 21 22 23 23 23 23 22 21 21 21 21 22 20 19 16 14 11 4 7 13 14 15 15 15 9 3 2 4 4 8 11 14 19 20 15
23 25 26 30 28 23 21 21 21 23 24 23 22 22 22 21 20 19 20 20 19 17 15 14 10 2 7 13 16 15 15 16 11 5 3 4 5 6 9 11 13 16 17
23 24 26 29 24 21 20 20 22 23 24 23 22 22 21 20 18 18 19 19 19 17 14 13 10 2 8 13 16 17 15 15 12 8 4 4 6 7 8 9 11 13 13
22 23 27 26 21 19 20 21 22 24 24 23 23 22 21 19 19 19 19 19 18 15 12 11 9 3 5 12 17 18 16 16 15 11 7 6 6 8 10 9 10 13 12

GFSGL_700_spd_081.txt.gz
Wind_Speed
31 32 32 32 35 38 42 45 47 46 45 46 46 46 45 45 45 46 46 46 47 46 45 46 45 46 46 46 46 47 47 47 49 47 47 44 42 35 36 40 42 44 46
29 30 33 35 39 44 46 45 44 44 44 44 43 43 44 45 46 47 47 45 45 46 46 48 48 47 47 47 47 46 46 44 46 46 45 40 36 28 27 33 37 40 41
32 35 37 40 45 46 44 43 42 42 42 41 42 43 43 44 44 44 44 44 45 47 47 47 47 46 46 45 44 43 40 36 36 38 36 27 25 24 20 26 33 36 38
35 38 40 45 46 43 41 41 40 39 40 40 41 41 42 42 42 42 44 45 47 48 48 46 44 42 41 37 32 29 26 25 24 28 24 29 29 28 30 27 28 31 32
39 42 46 45 41 39 39 38 38 39 39 39 40 42 43 42 41 43 45 47 49 48 45 40 34 30 26 26 27 28 31 32 34 30 32 32 30 30 29 28 28 28 32
42 46 42 39 37 37 37 37 36 37 37 39 41 42 39 40 41 43 44 45 44 40 35 31 29 27 26 26 27 30 31 31 31 34 31 30 36 35 28 30 32 32 35
44 39 36 35 35 35 35 35 34 36 38 40 39 38 40 41 41 42 40 39 36 31 30 30 29 29 29 28 28 29 29 33 35 36 39 39 38 37 37 39 37 36 37
37 35 33 33 33 33 33 33 34 37 38 38 37 40 41 40 41 38 37 33 30 28 29 30 29 30 30 31 31 33 32 33 36 39 39 40 40 39 39 38 35 32 29
33 31 30 30 31 32 32 34 35 37 37 37 39 40 42 39 38 36 29 27 26 27 28 28 28 29 29 28 32 34 38 36 31 34 38 40 37 34 33 32 28 31 42
29 29 30 32 33 33 34 35 36 37 36 38 40 41 40 41 34 28 24 25 27 27 27 26 26 28 29 30 32 33 34 37 35 31 26 27 29 27 26 28 32 38 38
28 29 30 31 32 33 34 35 35 35 37 39 41 40 39 34 30 25 22 23 26 27 28 29 30 31 32 33 31 33 36 26 23 25 20 19 19 20 23 24 28 33 37
27 28 30 31 33 33 33 33 34 36 38 40 40 39 32 29 26 24 22 22 23 27 28 31 35 37 35 34 34 28 19 20 14 12 10 10 16 19 21 23 22 22 19
28 29 31 32 32 31 31 32 34 36 39 39 40 35 29 26 23 21 21 23 23 27 31 35 36 36 34 30 24 17 12 8 14 11 11 13 15 16 17 18 18 15 9
29 31 31 30 30 30 30 32 35 37 37 39 36 32 28 26 23 21 21 23 25 29 31 31 30 28 26 22 16 18 16 13 14 14 15 14 16 18 19 20 18 16 15
29 30 29 31 29 28 30 33 35 36 38 37 34 32 29 25 23 23 23 26 29 30 30 29 28 26 23 19 15 19 20 21 22 22 20 19 19 21 19 19 19 20 20
29 29 29 29 27 28 32 33 32 34 34 32 29 27 25 25 24 24 25 25 25 27 28 28 27 24 21 16 12 14 16 16 17 17 17 17 18 14 15 14 17 18 19
29 29 28 28 27 30 32 34 35 31 26 27 25 23 24 24 25 24 24 24 25 27 27 27 25 22 17 13 11 12 10 12 11 10 12 11 14 15 17 21 24 24 25
27 28 28 26 28 31 33 33 35 33 30 22 21 23 24 23 23 23 24 23 24 24 25 25 22 19 14 10 11 9 9 8 8 8 6 10 11 13 16 20 23 24 28
26 25 23 25 29 32 33 34 31 29 25 23 21 21 24 22 22 23 23 25 26 25 24 22 19 15 10 8 10 9 7 6 5 3 3 7 18 13 12 21 12 17 23
24 22 24 27 30 31 34 31 28 24 23 24 24 24 22 21 21 21 22 23 24 24 23 20 16 12 7 9 11 9 6 6 7 6 8 12 12 10 21 26 8 11 11
21 22 24 27 29 32 31 27 25 24 24 25 24 24 24 25 24 24 23 23 24 23 22 18 15 11 5 10 12 10 8 8 8 7 5 13 14 15 22 22 6 10 3
20 23 25 27 30 30 26 25 23 24 24 24 23 23 23 23 22 22 22 22 23 23 21 17 14 10 4 10 12 11 10 9 7 7 6 8 9 12 19 24 16 16 6
21 23 26 27 30 26 23 22 23 23 24 25 25 24 22 22 21 21 22 22 23 22 19 17 14 9 4 11 12 11 11 10 6 2 4 6 6 8 11 17 17 16 10
21 23 25 29 27 23 21 21 22 24 25 25 24 23 22 21 20 20 21 22 22 19 17 15 14 7 4 10 13 12 11 10 7 1 3 5 5 7 9 11 14 15 14
22 23 26 28 23 20 20 21 23 23 24 25 24 23 22 21 20 20 20 21 21 17 14 13 13 6 4 10 13 13 10 11 9 3 2 3 5 6 7 10 14 18 15
21 23 27 25 20 19 20 22 23 24 25 25 24 23 23 21 20 20 18 20 20 17 13 11 10 5 4 9 13 14 12 13 11 6 2 1 3 8 6 8 11 12 14

GFSGL_700_spd_084.txt.gz
Wind_Speed
29 30 31 32 33 34 37 39 43 48 48 48 47 46 44 43 43 44 44 45 46 46 46 45 44 44 45 46 47 47 48 48 51 46 45 45 45 40 37 37 39 44 46
30 31 32 32 34 37 40 45 50 49 48 46 45 43 43 42 43 44 43 44 46 45 44 44 44 46 47 47 47 46 46 44 46 48 44 40 42 39 34 34 37 40 43
30 32 33 36 39 43 46 50 49 46 44 42 42 42 41 41 42 43 45 46 45 44 44 45 45 46 47 45 42 41 38 36 34 35 33 28 29 29 24 27 33 37 39
32 33 36 40 44 46 49 45 43 42 41 40 40 40 40 41 42 44 43 42 42 43 44 45 44 44 40 35 30 26 22 22 25 30 28 26 25 22 23 23 26 29 31
35 37 41 44 47 46 43 41 39 38 38 38 38 39 40 41 41 40 41 43 44 45 45 44 41 35 27 24 26 27 29 31 31 32 30 28 24 25 30 25 25 28 31
38 42 44 45 42 40 37 36 35 35 36 37 38 39 40 39 39 41 43 45 45 45 42 38 33 26 26 25 24 26 27 28 30 29 30 27 22 25 26 26 27 27 29
41 42 41 39 37 35 34 34 34 35 36 37 39 39 39 39 41 43 43 43 42 42 37 30 27 27 27 28 27 27 28 29 31 34 35 37 37 35 37 37 33 34 33
41 38 36 34 33 33 33 33 34 36 37 38 38 38 39 40 42 42 41 41 38 33 28 27 26 26 25 26 26 27 26 25 27 31 36 39 41 38 39 37 35 36 37
36 35 33 32 30 31 32 34 35 36 37 36 37 38 41 42 41 41 37 33 30 26 24 24 25 26 22 23 26 28 32 31 30 29 32 34 31 33 33 34 34 32 27
32 30 29 30 30 32 34 35 36 35 35 35 36 39 42 42 42 36 31 30 28 25 24 24 25 26 27 26 30 30 33 32 35 35 33 28 30 30 30 35 38 36 34
29 30 30 31 32 34 34 35 34 34 34 36 39 40 40 40 35 30 28 26 24 25 26 27 29 28 29 31 28 28 33 38 36 27 25 16 16 23 23 23 25 27 29
29 30 31 31 33 33 33 33 33 34 36 38 40 40 38 32 31 28 26 23 22 24 27 29 33 34 32 32 34 34 31 29 19 13 7 11 6 9 14 16 19 22 25
28 29 30 31 31 32 33 32 32 34 37 39 40 40 34 30 26 24 23 22 20 22 29 30 33 33 32 30 28 26 23 14 15 13 10 11 11 12 15 17 18 19 22
28 29 30 31 31 32 32 31 33 36 39 39 40 36 32 26 24 23 23 24 24 24 27 28 28 29 29 28 24 19 17 17 18 16 12 14 14 15 16 17 18 19 19
29 30 31 32 32 32 30 30 34 36 39 41 38 35 31 25 24 24 24 25 26 26 28 27 28 29 27 24 19 15 14 18 22 22 22 22 21 21 20 22 21 18 18
29 30 30 31 31 29 29 30 32 34 35 32 32 30 27 26 25 24 23 23 25 26 28 29 28 28 25 20 14 11 12 15 18 19 19 19 16 17 17 15 15 17 15
27 27 29 29 28 28 30 33 35 33 29 26 26 25 25 25 24 24 25 25 26 28 29 29 28 25 21 16 10 9 9 10 11 11 9 10 11 13 16 17 18 20 22
27 28 28 27 27 29 32 34 36 33 29 22 22 25 24 24 24 25 26 26 25 25 26 26 24 21 17 12 8 8 7 8 7 6 6 6 9 13 21 20 22 26 27
25 26 25 26 28 31 33 35 31 28 25 25 24 23 24 23 23 24 24 25 26 25 25 23 20 17 15 10 7 7 6 6 5 4 4 5 13 21 13 22 21 16 19
23 23 24 26 28 30 33 30 26 24 25 26 26 25 23 21 21 21 22 23 24 25 25 22 17 16 14 8 6 8 7 5 5 6 5 11 15 12 16 21 17 16 14
20 21 24 27 28 32 29 25 24 25 26 26 26 25 24 25 24 24 23 23 25 26 26 21 16 15 11 6 7 9 7 5 4 3 6 12 13 14 20 20 19 21 9
20 23 25 27 30 29 25 24 24 25 26 26 25 24 24 23 23 23 23 24 25 26 25 19 16 14 8 4 9 10 8 5 2 2 5 9 10 12 15 19 24 18 5
21 23 25 28 29 24 22 23 24 25 25 26 27 25 24 23 23 22 23 23 24 26 23 18 15 13 6 5 10 11 8 5 3 2 3 7 8 9 11 19 23 17 9
22 23 25 28 25 22 22 22 24 25 26 27 26 26 25 24 23 23 23 21 22 23 22 17 14 12 5 6 11 11 9 6 4 0 3 6 6 7 10 20 23 23 8
22 24 26 26 22 20 21 23 24 25 27 27 27 27 26 26 25 25 24 22 21 22 22 18 13 11 4 7 11 11 8 10 7 1 3 5 6 7 8 10 13 16 18
23 25 26 24 21 19 21 24 25 26 27 27 28 29 30 29 29 27 25 23 22 21 22 19 12 8 5 7 12 12 10 11 7 2 1 3 4 5 7 9 11 11 16

GFSGL_700_spd_087.txt.gz
Wind_Speed
25 27 29 30 31 32 31 32 35 39 42 45 47 45 43 42 41 41 41 41 42 41 41 43 43 44 43 43 43 44 46 48 51 47 48 45 45 42 40 39 38 40 44
27 28 30 30 30 32 35 38 41 44 46 46 43 42 41 40 39 40 39 39 41 42 43 44 43 42 42 42 43 44 46 45 46 48 41 37 37 37 35 37 37 38 40
26 28 29 32 34 36 39 42 44 45 42 40 39 38 38 38 38 38 40 41 43 43 41 41 42 42 43 42 41 41 38 34 31 32 26 21 21 26 24 27 31 32 34
27 30 32 35 37 40 43 44 43 40 39 38 37 37 37 37 38 40 42 42 41 40 41 42 43 42 41 38 34 27 23 26 25 31 28 28 25 25 26 24 25 24 25
30 32 35 38 40 43 44 40 39 36 35 34 35 36 37 37 38 39 40 40 40 42 42 43 41 38 36 29 25 27 30 28 29 28 28 30 27 28 27 25 27 26 26
32 36 39 41 42 40 37 34 32 31 32 34 35 35 36 37 37 38 39 42 43 44 44 42 40 34 27 23 24 24 26 27 29 29 27 32 31 28 24 22 23 26 26
36 38 39 39 36 32 30 29 30 31 32 33 34 36 36 36 36 38 41 43 43 43 40 35 31 26 22 23 23 24 25 26 30 30 31 31 31 32 35 35 35 33 30
36 36 35 31 29 29 29 29 31 32 33 34 34 34 35 35 38 40 41 42 40 35 31 29 25 22 20 22 22 21 20 20 24 28 30 31 33 32 34 35 35 37 38
33 31 28 28 28 28 29 30 32 32 32 33 33 34 36 37 39 40 40 37 33 31 26 23 22 22 20 20 22 25 27 25 29 31 31 31 32 33 36 37 29 30 34
27 26 26 26 27 28 29 31 31 32 33 33 33 35 38 39 39 39 33 33 32 27 21 17 23 21 22 24 25 27 29 29 30 29 33 32 33 35 35 32 34 36 31
25 25 25 26 28 29 30 30 32 33 32 32 35 36 38 38 37 33 29 28 26 22 20 24 25 26 27 28 26 28 32 35 39 40 35 26 19 18 18 21 27 31 34
24 25 26 27 28 29 30 30 32 33 32 34 36 37 37 35 31 26 24 23 21 21 22 24 29 30 29 29 33 34 33 33 30 26 19 15 13 11 10 10 11 14 17
24 25 26 28 29 30 30 31 32 31 33 36 38 38 35 29 24 23 24 24 23 22 25 27 28 28 29 29 30 29 28 27 23 19 17 14 11 11 11 12 14 17 20
24 25 27 29 28 29 31 31 31 32 35 37 38 37 31 25 22 23 24 25 23 23 23 23 25 27 28 28 27 24 22 21 18 18 17 13 13 13 14 16 16 19 21
25 26 28 28 28 29 29 28 30 33 37 38 36 33 29 24 22 24 24 24 24 25 27 26 27 27 27 25 23 21 18 16 13 16 17 17 19 21 20 21 22 23 25
25 26 27 27 27 28 28 27 29 32 33 31 30 28 26 26 25 24 24 23 24 25 26 26 25 25 24 21 18 15 13 10 9 11 14 16 17 16 14 16 18 18 16
25 25 25 26 26 27 28 31 31 30 26 24 23 24 25 25 24 24 24 23 24 25 24 24 24 23 21 18 14 10 8 8 8 8 9 10 10 10 12 11 15 18 19
24 23 24 25 26 28 30 32 33 29 25 20 22 24 23 24 23 23 24 23 21 22 23 22 21 19 17 15 10 7 7 7 6 7 8 8 7 8 14 21 21 19 27
20 21 22 23 26 29 30 32 28 25 24 24 22 22 23 22 22 22 23 23 23 23 22 22 20 17 16 13 7 6 7 6 6 7 6 5 8 16 19 17 21 17 16
19 20 22 24 26 28 30 26 24 23 23 24 24 24 22 21 20 20 20 21 22 22 23 22 18 17 14 10 5 7 6 5 5 4 4 6 11 12 17 19 21 17 19
18 20 23 25 26 29 26 23 23 23 24 25 25 25 25 25 24 23 22 22 22 22 23 21 16 15 12 7 6 7 6 5 3 3 4 8 11 11 15 18 24 20 15
20 22 23 25 28 25 22 22 23 24 25 25 25 24 24 24 23 23 22 23 22 21 22 21 15 13 10 7 7 7 6 5 4 3 5 8 9 10 12 23 23 15 7
21 22 24 26 25 21 20 22 24 24 25 25 25 25 26 25 25 24 24 23 22 21 20 19 14 12 9 7 8 8 7 5 5 2 4 7 7 8 9 22 25 15 7
21 23 25 25 23 19 20 23 24 24 25 25 25 25 27 27 26 25 24 23 22 21 20 19 15 10 9 7 10 10 8 7 7 2 4 7 6 8 7 9 14 21 12
23 25 26 23 20 18 21 24 24 24 25 26 26 27 29 30 28 26 25 24 22 20 18 18 15 9 8 7 10 11 9 10 8 3 4 7 7 7 9 9 14 19 15
24 26 25 21 19 20 24 25 25 25 26 27 28 30 32 31 28 26 25 24 23 20 18 18 13 7 5 7 11 12 11 12 8 3 2 6 8 8 9 13 18 18 12